Weather History for Torrington, WY

Change the Weather History Date:

Thursday, July 18, 2013

  Actual Average Record
Temperature  
Mean Temperature 79 °F 75 °F  
Max Temperature 97 °F 91 °F 105 °F (2006)
Min Temperature 61 °F 58 °F 52 °F (2005)
Degree Days  
Heating Degree Days 0 0  
Month to date heating degree days 0 0  
Since 1 June heating degree days 34 75  
Since 1 July heating degree days 0 0  
Cooling Degree Days 14 10  
Month to date cooling degree days 191 153  
Year to date cooling degree days 390 287  
Since 1 June cooling degree days 351 269  
Growing Degree Days 29 (Base 50)    
Moisture  
Dew Point 56 °F    
Average Humidity 50    
Maximum Humidity 78    
Minimum Humidity 21    
Precipitation  
Precipitation T in 0.07 in 0.10 in (2000)
Month to date precipitation 0.42 0.94  
Year to date precipitation 5.84 8.83  
Sea Level Pressure  
Sea Level Pressure 29.93 in    
Wind  
Wind Speed 8 mph (NE)    
Max Wind Speed 43 mph    
Max Gust Speed 54 mph    
Visibility 10 miles    
Events Rain , Thunderstorm    
T = Trace of Precipitation, MM = Missing Value Source: NWS Daily Summary

Daily Weather History Graph

Daily Weather History Graph

Search for Another Location

Airport:

Trip Planner

Search our weather history database for the weather conditions in past years. The results will help you decide how hot, cold, wet, or windy it might be!

Date:

Astronomy

Jul. 18, 2013 Rise Set
Actual Time 5:36 AM MDT 8:28 PM MDT
Civil Twilight 5:03 AM MDT 9:01 PM MDT
Nautical Twilight 4:22 AM MDT 9:42 PM MDT
Astronomical Twilight 3:33 AM MDT 10:31 PM MDT
Moon 4:27 PM MDT (7/18) 1:30 AM MDT (7/18)
Length of Visible Light 15h 57m
Length of Day
14h 51m
Waxing Gibbous, 78% of the Moon is Illuminated
Jul 18
Waxing Gibbous
Jul 22
Full
Jul 29
Last Quarter
Aug 6
New
Aug 14
First Quarter

Hourly Weather History & Observations

Time (MDT) Temp. Heat Index Dew Point Humidity Pressure Visibility Wind Dir Wind Speed Gust Speed Precip Events Conditions
12:53 AM 72.0 °F - 55.0 °F 55% 29.94 in 10.0 mi ESE 4.6 mph - N/A   Clear
1:53 AM 71.1 °F - 55.0 °F 57% 29.93 in 10.0 mi SE 5.8 mph - N/A   Clear
2:53 AM 69.1 °F - 54.0 °F 58% 29.93 in 10.0 mi SE 6.9 mph - N/A   Clear
3:53 AM 66.9 °F - 54.0 °F 63% 29.91 in 10.0 mi ESE 6.9 mph - N/A   Clear
4:53 AM 64.0 °F - 55.0 °F 73% 29.92 in 10.0 mi ESE 8.1 mph - N/A   Clear
5:53 AM 62.1 °F - 55.0 °F 78% 29.93 in 10.0 mi Calm Calm - N/A   Partly Cloudy
6:53 AM 64.9 °F - 57.0 °F 75% 29.93 in 10.0 mi East 3.5 mph - N/A   Clear
7:53 AM 69.1 °F - 57.0 °F 65% 29.94 in 10.0 mi Calm Calm - N/A   Clear
8:53 AM 72.0 °F - 57.0 °F 59% 29.94 in 10.0 mi West 3.5 mph - N/A   Clear
9:53 AM 79.0 °F - 55.9 °F 45% 29.93 in 10.0 mi West 5.8 mph - N/A   Clear
10:53 AM 82.9 °F 82.4 °F 57.0 °F 41% 29.91 in 10.0 mi Calm Calm - N/A   Clear
11:53 AM 89.1 °F 87.3 °F 55.9 °F 32% 29.88 in 10.0 mi Variable 3.5 mph - N/A   Clear
12:53 PM 93.0 °F - 51.1 °F 24% 29.87 in 10.0 mi NNW 8.1 mph 19.6 mph N/A   Clear
1:53 PM 93.9 °F - 51.1 °F 23% 29.85 in 10.0 mi NNW 10.4 mph 23.0 mph N/A   Clear
2:53 PM 95.0 °F 92.7 °F 54.0 °F 25% 29.84 in 10.0 mi North 13.8 mph 18.4 mph N/A   Clear
3:53 PM 93.0 °F 90.6 °F 53.1 °F 26% 29.84 in 10.0 mi North 9.2 mph 16.1 mph N/A   Clear
4:53 PM 96.1 °F - 50.0 °F 21% 29.83 in 10.0 mi NNW 10.4 mph - N/A   Partly Cloudy
5:53 PM 96.1 °F - 52.0 °F 22% 29.82 in 10.0 mi Variable 6.9 mph - N/A   Scattered Clouds
6:53 PM 91.9 °F - 50.0 °F 24% 29.81 in 10.0 mi NNE 12.7 mph - N/A   Partly Cloudy
7:53 PM 89.1 °F - 52.0 °F 28% 29.83 in 10.0 mi ENE 9.2 mph - N/A   Clear
8:44 PM 80.6 °F 80.8 °F 57.2 °F 45% 30.04 in 9.0 mi NE 36.8 mph 54.1 mph N/A Thunderstorm Partly Cloudy
8:53 PM 75.0 °F - 57.9 °F 55% 29.90 in 10.0 mi ENE 27.6 mph 44.9 mph 0.00 in Rain , Thunderstorm Light Thunderstorms and Rain
9:04 PM 73.4 °F - 60.8 °F 65% 30.05 in 10.0 mi East 13.8 mph 34.5 mph 0.00 in Rain , Thunderstorm Light Rain
9:11 PM 71.6 °F - 64.4 °F 78% 30.05 in 10.0 mi NNE 10.4 mph - 0.00 in Thunderstorm Scattered Clouds
9:32 PM 73.4 °F - 62.6 °F 69% 30.08 in 10.0 mi NE 10.4 mph - 0.00 in   Clear
9:53 PM 77.0 °F - 59.0 °F 54% 29.94 in 10.0 mi SSW 19.6 mph 24.2 mph 0.00 in   Scattered Clouds
10:04 PM 75.2 °F - 57.2 °F 53% 30.11 in 10.0 mi SSW 12.7 mph 23.0 mph N/A   Partly Cloudy
10:53 PM 73.9 °F - 59.0 °F 59% 29.94 in 10.0 mi SW 9.2 mph - N/A   Partly Cloudy
11:53 PM 73.9 °F - 57.9 °F 57% 29.94 in 10.0 mi WSW 11.5 mph - N/A   Partly Cloudy